Dean International
Flight School

Career Spotlight

Mika

Mika

Congratulations to Mika from Khazakstan. She recently sent us this photo of her flying an Airbus airliner.

More...
Mika's Success Story
close

Congratulations to Mika from Khazakstan. She recently sent us this photo of her flying an Airbus airliner.

Mario

Mario

My dreams could not have been realized if I wouldn't have been part of the Dean International family.

More...
Mario's Success Story
close

"My dreams could not have been realized if I wouldn't have been part of the Dean International family. Thank you Robert, thanks to all my co-workers, and thanks to all of my students!"

Fernando

Fernando

I am now working as a First Officer at TACA and am enjoying every moment of it.

More...
Fernando's Success Story
close

"Will never forget my time of flight training at Dean International. I am now working as a First Officer at TACA and am enjoying every moment of it."

Alvaro

Alvaro

Because of the flight time I was able to built while instructing, I got the experience needed to apply to an airline in Colombia.

More...
Alvaro's Success Story
close

Dean alumnus Alvaro Londoño currently flies with Tampa Cargo. He says of his experience at Dean: "I want to take this opportunity to thank you for giving me the chance to build my experience and expand my knowledge in Dean International. Because of the flight time I was able to built flight instructing, I got the experience needed to apply to an airline in Colombia."

Ralph

Ralph

Every Aruban student of Dean International has made it into Tiara Air Aruba, that is very nice.

More...
Ralph's Success Story
close

"Next to me is my Co-Pilot, Elison. This picture was taken on our first flight together, which was almost exactly 5 years after I finished at Dean International. [...] Every Aruban student of Dean International has made it into Tiara Air Aruba. [...] The future looks bright here in Aruba."

Rohaan

Rohaan

The [..] staff will all work diligently to help you finish your certificates as safely and efficiently as possible.

More...
Rohaan's Success Story
close

After receiving very hard times from other flight schools [...], I came to Dean International where Robert Dean personally sat down with me and gave me a financial and chronological look into how much remained to finish my private pilot certificate. Through his hard efforts as an instructor and mentor, I was able to finish my private pilot certificate within one week.

Welcome to Dean International

In over two decades, Dean International has educated over 7,000 pilots from all over the world, including over 1,000 students from India alone. By offering a great training experience, a friendly service staff, an ample variety of aircraft, and by improving constantly, we have become one of the largest, most prestigious FAA 141-approved flight schools in North America. Located in Miami, Florida, USA, our flight school offers an ideal location for year-round, "learn to fly" weather, flight training. Dean International is not only well-equipped to provide services to professional trainees but also caters to General Aviation renters. Visit or contact our headquarters at Kendall-Tamiami Executive Airport located in Miami, FL today to learn more about us, or simply read more about our programs if you are an international student interested in joining our school.

Local Airport Information
TAF FOR KTMB (Issued: Fri, July 3rd 2015 9:54 PM UTC)
TAF
      AMD KTMB 032053Z 0321/0418 31010KT P6SM VCTS SCT035CB BKN050
      FM040200 11004KT P6SM FEW025
      FM041500 13010KT P6SM VCTS SCT030CB BKN050
     
METAR FOR KTMB (Issued: Fri, July 3rd 2015 10:53 PM UTC):
KTMB 032253Z 11008KT 10SM CLR 29/21 A3004 RMK AO2 SLP171 T02940206

This weather information is provided by the National Weather Service.
It is automatically refreshed every three minutes.
TAF FOR KHST (Issued: Fri, July 3rd 2015 8:21 PM UTC)
TAF
      AMD KHST 0320/0422 09009KT 9999 FEW050 QNH3004INS
      TEMPO 0320/0322 VRB10G15KT 8000 -TSRA BKN050CB
      BECMG 0414/0415 12012KT 9999 SCT050 QNH3000INS TX32/0320Z TN26/0411Z
      AMD 032000
     
METAR FOR KHST (Issued: Fri, July 3rd 2015 10:58 PM UTC):
KHST 032258Z AUTO 08011KT 10SM FEW024 30/24 A3004 RMK AO2 LTG DSNT SW AND NW SLP176 T03000241 $

This weather information is provided by the National Weather Service.
It is automatically refreshed every three minutes.
TAF FOR KOPF (Issued: Fri, July 3rd 2015 9:54 PM UTC)
TAF
      AMD KOPF 032051Z 0321/0418 12010KT P6SM SCT035
      FM032115 30010KT P6SM VCTS SCT035CB BKN050
      FM040300 11004KT P6SM FEW025
      FM041500 13010KT P6SM VCTS SCT035CB
     
METAR FOR KOPF (Issued: Fri, July 3rd 2015 10:53 PM UTC):
KOPF 032253Z 11014KT 10SM FEW070 FEW090 BKN110 29/24 A3002 RMK AO2 WSHFT 2227 RAB41E50 TSE29 SLP168 P0000 T02940239

This weather information is provided by the National Weather Service.
It is automatically refreshed every three minutes.
TAF FOR KMIA (Issued: Fri, July 3rd 2015 10:57 PM UTC)
TAF
      AMD KMIA 032152Z 0322/0418 30013G22KT 2SM TSRA BKN035CB
      FM032300 30010KT P6SM VCTS SCT035CB BKN050
      FM040200 11006KT P6SM FEW025
      FM041500 13010KT P6SM VCTS SCT025CB BKN050
     
METAR FOR KMIA (Issued: Fri, July 3rd 2015 10:53 PM UTC):
KMIA 032253Z 10007KT 10SM SCT035 SCT100 BKN210 BKN250 28/20 A3004 RMK AO2 RAE41 TSE41 SLP171 CB DSIPTD E-SE CB DSNT SW AND W P0010 T02780200

This weather information is provided by the National Weather Service.
It is automatically refreshed every three minutes.
Design by Ariel Llizo
© Dean International Inc. 2012